Home   Weather   Esfahãn   Past weeks

Flag for Iran Past Weather in Esfahãn, Iran — Yesterday and Last 2 Weeks

70 °F


Feels Like: 70 °F
Forecast: 37 / 70 °F
Wind: No wind

Location: Esfahan

Current Time: Oct 24, 2016 at 5:56:02 PM

Latest Report: Oct 24, 2016 at 5:00 PM

Visibility: 10 mi

Pressure: 30.09 "Hg (25.06 "Hg at 1576m altitude)

Humidity: 17%

Dew Point: 23 °F

Location of EsfahãnLocation

Past Weather in Esfahãn — Graph


Esfahãn Temperature Yesterday

Maximum temperature yesterday: 72 °F (at 2:00 PM)
Minimum temperature yesterday: 41 °F (at 6:00 AM)
Average temperature yesterday: 57 °F

High & Low Weather Summary for the Past Weeks

High82 °F (Oct 10, 1:30 PM)60% (Oct 24, 6:30 AM)30.30 "Hg (Oct 24, 6:30 AM)
Low37 °F (Oct 17, 5:30 AM)7% (Oct 13, 4:30 PM)30.01 "Hg (Oct 10, 3:00 PM)
Average61 °F25%30.13 "Hg
* Reported Oct 9 4:30 PM — Oct 24 4:30 PM, Esfahãn, Weather by CustomWeather, © 2016

Note: Actual official high and low records may vary slightly from our data, if they occured in-between our weather recording intervals... More about our weather records


Esfahãn Weather History for the Previous 24 Hours

Scroll right to see more
Time TempWeatherWind HumidityBarometerVisibility
4:30 PM
Mon, Oct 24
72 °FSunny.7 mph16%30.09 "Hg10 mi
4:00 PM72 °FSunny.5 mph16%30.09 "Hg10 mi
3:30 PM72 °FSunny.No wind15%30.09 "Hg10 mi
3:00 PM73 °FSunny.5 mph15%30.09 "Hg10 mi
2:30 PM72 °FClear.5 mph16%30.09 "Hg5 mi
2:00 PM72 °FClear.5 mph19%30.12 "Hg5 mi
1:30 PM70 °FClear.5 mph20%30.12 "Hg4 mi
1:00 PM70 °FClear.7 mph21%30.12 "Hg5 mi
12:30 PM68 °FClear.5 mph23%30.15 "Hg5 mi
12:00 PM66 °FSunny.No wind24%30.15 "Hg10 mi
11:30 AM66 °FSunny.5 mph26%30.18 "Hg10 mi
11:00 AM64 °FSunny.No wind26%30.18 "Hg10 mi
10:30 AM63 °FClear.No wind27%30.18 "Hg5 mi
10:00 AM61 °FClear.5 mph29%30.21 "Hg4 mi
9:30 AM57 °FClear.No wind36%30.21 "Hg4 mi
9:00 AM54 °FClear.5 mph35%30.21 "Hg5 mi
8:30 AM50 °FClear.No wind40%30.21 "Hg4 mi
8:00 AM46 °FClear.5 mph46%30.21 "Hg5 mi
7:30 AM43 °FSunny.5 mph46%30.18 "Hg10 mi
7:00 AM39 °FSunny.5 mph52%30.18 "Hg10 mi
6:30 AM37 °FClear.5 mph60%30.18 "Hg10 mi
6:00 AM37 °FClear.5 mph56%30.18 "Hg10 mi
5:30 AM41 °FClear.5 mph53%30.15 "Hg10 mi
5:00 AM39 °FClear.5 mph56%30.15 "Hg4 mi
4:30 AM39 °FClear.5 mph56%30.15 "Hg4 mi
4:00 AM39 °FClear.7 mph56%30.15 "Hg10 mi
3:30 AM39 °FClear.5 mph48%30.15 "Hg10 mi
3:00 AM37 °FClear.5 mph48%30.15 "Hg10 mi
2:30 AM43 °FClear.No wind49%30.15 "Hg10 mi
2:00 AM43 °FClear.No wind49%30.15 "Hg10 mi
1:30 AM45 °FClear.5 mph39%30.15 "Hg10 mi
1:00 AM46 °FClear.7 mph43%30.15 "Hg10 mi
12:30 AM48 °FClear.7 mph40%30.15 "Hg10 mi
12:00 AM48 °FClear.7 mph40%30.15 "Hg10 mi
11:30 PM
Sun, Oct 23
55 °FClear.9 mph36%30.15 "Hg10 mi
11:00 PM57 °FClear.5 mph36%30.15 "Hg10 mi
10:30 PM57 °FClear.12 mph33%30.15 "Hg10 mi
10:00 PM57 °FClear.12 mph33%30.15 "Hg10 mi
9:30 PM59 °FClear.14 mph34%30.15 "Hg10 mi
9:00 PM59 °FClear.12 mph31%30.15 "Hg10 mi
8:30 PM59 °FClear.7 mph31%30.15 "Hg10 mi
8:00 PM61 °FClear.7 mph29%30.15 "Hg10 mi
7:30 PM63 °FClear.9 mph27%30.12 "Hg10 mi
7:00 PM64 °FPassing clouds.9 mph24%30.12 "HgN/A
6:30 PM66 °FPassing clouds.7 mph22%30.12 "HgN/A
6:00 PM66 °FPassing clouds.7 mph22%30.12 "Hg5 mi
5:30 PM68 °FScattered clouds.7 mph21%30.12 "Hg4 mi
5:00 PM70 °FScattered clouds.7 mph20%30.12 "HgN/A
Weather by CustomWeather, © 2016

See weather overviewHow to use our weather pages